Location: Benque
(43.2594°N, 0.9178°E)
Time: 18:42:21
(UTC+00:00)

Cosmos 1821 Rocket - Pass Details

Date: 24 January 2020
Orbit: 944 x 1005 km, 82.9° (Epoch: 26 February)

Event Time Altitude Azimuth Distance (km) Brightness Sun altitude
Rises 19:33:36 0° 194° (SSW) 3,716 7.2 -28.4°
Reaches altitude 10° 19:36:09 10° 197° (SSW) 2,767 6.5 -28.8°
Maximum altitude 19:42:29 68° 280° (W) 1,072 4.3 -30.0°
Drops below altitude 10° 19:48:47 10° 3° (N) 2,753 6.3 -31.1°
Sets 19:51:19 0° 6° (N) 3,696 7.0 -31.6°
